CW3065 Weather Reports


Display with metric or nautical units.
time (UTC)temp
F
wind
direction
speed
MPH
gust
MPH
rain 1hr
in
rain 24hr
in
rain mn
in
humidity
%
barometer
mb
20260507165004 45 249 6.0 14.0 0.00 0.67 0.00 49 1013.1
20260507164504 44 252 6.0 12.0 0.00 0.67 0.00 49 1012.9
20260507163504 44 238 10.0 18.0 0.00 0.67 0.00 49 1012.7
20260507163004 45 228 14.0 23.0 0.00 0.67 0.00 47 1012.8
20260507162504 45 236 12.0 20.0 0.00 0.67 0.00 47 1013.0
20260507162004 45 237 12.0 23.0 0.00 0.67 0.00 47 1012.8
20260507161504 44 251 12.0 20.0 0.00 0.67 0.00 48 1013.0
20260507161004 44 246 13.0 18.0 0.00 0.67 0.00 48 1012.9
20260507160504 43 234 12.0 20.0 0.00 0.67 0.00 48 1012.7
20260507160005 43 221 9.0 16.0 0.00 0.67 0.00 50 1012.7
20260507155004 42 217 10.0 20.0 0.00 0.67 0.00 50 1013.0
20260507154504 42 225 6.0 13.0 0.00 0.67 0.00 49 1013.1
20260507154004 41 155 2.0 6.0 0.00 0.67 0.00 51 1013.3
20260507153504 41 207 5.0 17.0 0.00 0.67 0.00 52 1013.4
20260507153004 40 188 10.0 20.0 0.00 0.67 0.00 51 1013.4
20260507152504 40 197 13.0 23.0 0.00 0.67 0.00 50 1013.4
20260507152004 40 201 9.0 17.0 0.00 0.67 0.00 51 1013.5
20260507151504 40 222 11.0 25.0 0.00 0.67 0.00 51 1013.7
20260507151004 40 203 9.0 20.0 0.00 0.67 0.00 50 1013.9
20260507150504 40 192 8.0 15.0 0.00 0.67 0.00 50 1014.2
20260507150005 40 190 10.0 16.0 0.00 0.67 0.00 50 1014.4
20260507145504 39 211 6.0 13.0 0.00 0.67 0.00 51 1014.7
20260507145004 39 227 7.0 13.0 0.00 0.67 0.00 51 1014.9
20260507144004 39 246 12.0 23.0 0.00 0.67 0.00 50 1015.3
20260507143004 39 244 12.0 21.0 0.00 0.67 0.00 51 1015.0
20260507142504 39 238 10.0 20.0 0.00 0.67 0.00 51 1015.1
20260507141504 40 245 10.0 18.0 0.00 0.67 0.00 50 1014.9
20260507141004 40 246 12.0 17.0 0.00 0.67 0.00 50 1014.9
20260507140504 41 262 7.0 15.0 0.00 0.67 0.00 49 1015.0
20260507140004 40 263 2.0 12.0 0.00 0.67 0.00 51 1015.1
20260507135505 40 270 9.0 15.0 0.00 0.67 0.00 52 1015.0
20260507135005 40 136 3.0 20.0 0.00 0.67 0.00 52 1015.2
20260507134504 40 231 3.0 12.0 0.00 0.67 0.00 53 1015.3
20260507134003 39 203 8.0 21.0 0.00 0.67 0.00 52 1015.3
20260507133504 39 223 6.0 12.0 0.00 0.67 0.00 52 1015.3
20260507132504 38 208 7.0 17.0 0.00 0.67 0.00 53 1015.2
20260507132004 38 198 9.0 13.0 0.00 0.67 0.00 53 1015.2
20260507131503 38 191 8.0 14.0 0.00 0.67 0.00 52 1015.2
20260507131004 38 204 9.0 13.0 0.00 0.67 0.00 52 1015.2
20260507130504 38 236 9.0 16.0 0.00 0.67 0.00 52 1015.2
20260507125004 37 228 9.0 15.0 0.00 0.67 0.00 53 1015.2
20260507124504 37 235 9.0 14.0 0.00 0.67 0.00 53 1015.2
20260507124004 37 240 9.0 14.0 0.00 0.67 0.00 52 1015.1
20260507123004 37 236 11.0 15.0 0.00 0.67 0.00 53 1015.2
20260507122504 37 236 10.0 14.0 0.00 0.67 0.00 52 1015.3
20260507122005 37 238 9.0 14.0 0.00 0.67 0.00 53 1015.4
20260507121504 36 245 10.0 15.0 0.00 0.67 0.00 53 1015.4
20260507120504 36 244 9.0 17.0 0.00 0.67 0.00 53 1015.2
20260507115504 37 251 13.0 21.0 0.00 0.67 0.00 53 1015.2
20260507115004 36 248 12.0 18.0 0.00 0.67 0.00 53 1015.4
20260507114504 36 247 6.0 14.0 0.00 0.67 0.00 54 1015.6
20260507114004 36 255 5.0 10.0 0.00 0.67 0.00 54 1015.6
20260507113504 36 249 6.0 12.0 0.00 0.67 0.00 54 1015.6
20260507113004 36 249 8.0 13.0 0.00 0.67 0.00 53 1015.4
20260507112504 36 243 6.0 12.0 0.00 0.67 0.00 53 1015.3
20260507112004 36 268 9.0 15.0 0.00 0.67 0.00 53 1015.3
20260507111506 37 251 7.0 14.0 0.00 0.67 0.00 53 1015.5
20260507111003 37 262 9.0 18.0 0.00 0.67 0.00 52 1015.4
20260507110504 37 243 7.0 15.0 0.00 0.67 0.00 52 1015.6
20260507110004 37 260 6.0 16.0 0.00 0.67 0.00 52 1015.6
20260507105504 37 253 10.0 18.0 0.00 0.67 0.00 51 1015.6
20260507105004 36 255 9.0 20.0 0.00 0.67 0.00 51 1016.0
20260507104004 36 250 13.0 21.0 0.00 0.67 0.00 51 1016.0
20260507103504 36 245 12.0 21.0 0.00 0.67 0.00 51 1015.9
20260507103004 36 244 10.0 20.0 0.00 0.67 0.00 51 1015.9
20260507102504 36 255 10.0 21.0 0.00 0.67 0.00 52 1016.0
20260507102006 36 263 9.0 18.0 0.00 0.67 0.00 52 1016.0
20260507101504 36 255 12.0 20.0 0.00 0.67 0.00 51 1016.0
20260507101004 36 248 9.0 22.0 0.00 0.67 0.00 51 1015.9
20260507100504 36 253 15.0 24.0 0.00 0.67 0.00 51 1015.9
20260507100004 36 247 13.0 20.0 0.00 0.67 0.00 51 1015.9
20260507095504 36 247 13.0 23.0 0.00 0.67 0.00 51 1015.9
20260507094004 36 248 16.0 24.0 0.00 0.67 0.00 51 1015.7
20260507093504 36 250 18.0 29.0 0.00 0.67 0.00 51 1015.5
20260507093003 37 245 18.0 24.0 0.00 0.67 0.00 51 1015.6
20260507092504 37 249 16.0 28.0 0.00 0.67 0.00 51 1015.8
20260507092004 37 257 17.0 26.0 0.00 0.67 0.00 51 1015.8
20260507091503 37 246 15.0 22.0 0.00 0.67 0.00 51 1015.8
20260507091004 37 250 16.0 24.0 0.00 0.67 0.00 51 1015.7
20260507090504 37 254 14.0 23.0 0.00 0.67 0.00 52 1015.8
20260507085504 37 252 12.0 22.0 0.00 0.67 0.00 52 1015.8
20260507085004 36 250 15.0 23.0 0.00 0.67 0.00 52 1015.5
20260507084504 36 248 13.0 21.0 0.00 0.67 0.00 52 1015.5
20260507084004 36 248 13.0 20.0 0.00 0.67 0.00 52 1015.4
20260507083005 37 245 14.0 23.0 0.00 0.67 0.00 50 1015.3
20260507082004 37 245 13.0 22.0 0.00 0.67 0.00 51 1015.3
20260507081504 36 256 13.0 22.0 0.00 0.67 0.00 50 1015.3
20260507081004 37 248 15.0 24.0 0.00 0.67 0.00 50 1015.6
20260507080504 36 252 15.0 24.0 0.00 0.67 0.00 50 1015.5
20260507075504 36 246 13.0 20.0 0.00 0.67 0.00 50 1016.0
20260507074504 36 241 7.0 15.0 0.00 0.67 0.00 50 1016.5
20260507074004 36 258 5.0 10.0 0.00 0.67 0.00 50 1016.5
20260507073504 35 251 6.0 12.0 0.00 0.67 0.00 50 1016.5
20260507073004 35 246 6.0 12.0 0.00 0.67 0.00 50 1016.6
20260507072504 34 280 7.0 14.0 0.00 0.67 0.00 51 1016.6
20260507071504 35 290 6.0 12.0 0.00 0.67 0.00 51 1016.7
20260507071003 35 263 6.0 14.0 0.00 0.67 0.00 51 1016.8
20260507070504 35 276 7.0 15.0 0.00 0.67 0.00 50 1016.9
20260507070009 35 266 5.0 12.0 0.00 0.67 0.00 50 1017.0
20260507065504 35 263 5.0 14.0 0.00 0.67 0.00 51 1016.7
20260507065004 35 252 12.0 20.0 0.00 0.67 0.00 50 1016.6
20260507064504 35 256 10.0 23.0 0.00 0.67 0.00 51 1016.6
20260507064004 35 254 9.0 16.0 0.00 0.67 0.00 51 1016.7
20260507063504 35 265 12.0 23.0 0.00 0.67 0.00 50 1016.9
20260507063004 35 265 7.0 15.0 0.00 0.67 0.00 50 1017.1
20260507062504 35 253 10.0 14.0 0.00 0.67 0.00 50 1017.2
20260507062004 35 254 9.0 15.0 0.00 0.67 0.00 49 1017.2
20260507061504 35 250 13.0 21.0 0.00 0.67 0.00 49 1017.2
20260507060504 35 269 13.0 20.0 0.00 0.67 0.00 49 1017.2
20260507060004 35 260 10.0 24.0 0.00 0.67 0.00 49 1017.3
20260507054504 35 247 9.0 16.0 0.00 0.67 0.67 48 1017.7
20260507054004 35 256 13.0 21.0 0.00 0.67 0.67 48 1017.7
20260507053504 35 251 14.0 20.0 0.00 0.67 0.67 48 1017.7
20260507052504 35 257 9.0 20.0 0.00 0.67 0.67 48 1017.6
20260507052004 34 251 12.0 20.0 0.00 0.67 0.67 49 1017.4
20260507051504 34 266 10.0 20.0 0.00 0.67 0.67 50 1017.4
20260507050504 34 260 6.0 14.0 0.00 0.67 0.67 50 1017.4
20260507045004 34 278 9.0 18.0 0.00 0.67 0.67 51 1017.7
20260507044504 34 266 7.0 18.0 0.00 0.67 0.67 50 1017.6
20260507044004 35 273 10.0 20.0 0.00 0.67 0.67 50 1017.6
20260507043504 35 263 12.0 21.0 0.00 0.67 0.67 50 1017.4
20260507043004 34 258 9.0 16.0 0.00 0.67 0.67 50 1017.5
20260507042504 35 262 10.0 17.0 0.00 0.67 0.67 50 1017.3
20260507042004 35 275 13.0 21.0 0.00 0.67 0.67 50 1017.3
20260507041504 34 275 12.0 25.0 0.00 0.67 0.67 51 1017.3
20260507041004 35 265 20.0 25.0 0.00 0.67 0.67 51 1017.2
20260507040504 35 263 12.0 22.0 0.00 0.67 0.67 50 1017.1
20260507040004 35 261 13.0 23.0 0.00 0.67 0.67 50 1017.2
20260507035504 35 257 12.0 23.0 0.00 0.67 0.67 50 1017.2
20260507035003 35 269 13.0 24.0 0.00 0.67 0.67 50 1017.6
20260507034503 35 265 12.0 26.0 0.00 0.67 0.67 49 1017.6
20260507034004 35 268 12.0 28.0 0.00 0.67 0.67 50 1017.6
20260507033504 35 265 14.0 23.0 0.00 0.67 0.67 49 1017.6
20260507033004 35 255 17.0 26.0 0.00 0.67 0.67 50 1017.5
20260507032504 35 257 13.0 22.0 0.00 0.67 0.67 51 1017.1
20260507032004 35 254 15.0 24.0 0.00 0.67 0.67 50 1017.1
20260507031504 35 255 16.0 23.0 0.00 0.67 0.67 50 1016.9
20260507031004 35 255 16.0 23.0 0.00 0.67 0.67 51 1016.9
20260507030504 35 256 15.0 25.0 0.00 0.67 0.67 51 1016.9
20260507030004 35 246 12.0 20.0 0.00 0.67 0.67 51 1016.9
20260507025004 35 261 10.0 24.0 0.00 0.67 0.67 52 1016.7
20260507024504 35 259 9.0 18.0 0.00 0.67 0.67 53 1016.8
20260507023004 35 262 8.0 18.0 0.00 0.67 0.67 53 1016.5
20260507022504 35 260 7.0 22.0 0.00 0.67 0.67 53 1016.7
20260507022004 35 262 10.0 22.0 0.00 0.67 0.67 53 1016.5
20260507021503 35 248 9.0 17.0 0.00 0.67 0.67 53 1016.5
20260507020004 35 243 9.0 17.0 0.00 0.67 0.67 52 1016.3
20260507015504 35 248 10.0 17.0 0.00 0.67 0.67 52 1016.2
20260507015004 36 244 10.0 17.0 0.00 0.67 0.67 52 1016.2
20260507014504 36 234 7.0 13.0 0.00 0.67 0.67 52 1016.3
20260507014004 36 245 7.0 16.0 0.00 0.67 0.67 53 1016.2
20260507013504 36 242 6.0 13.0 0.01 0.67 0.67 52 1016.2
20260507013005 37 242 6.0 10.0 0.01 0.67 0.67 51 1016.2
20260507012503 37 246 5.0 12.0 0.01 0.67 0.67 50 1016.2
20260507011504 38 254 7.0 13.0 0.01 0.67 0.67 48 1016.1
20260507010504 38 254 7.0 18.0 0.01 0.67 0.67 49 1016.1
20260507005504 39 239 4.0 14.0 0.01 0.67 0.67 48 1016.4
20260507005004 39 241 6.0 13.0 0.01 0.67 0.67 48 1016.7
20260507004504 39 264 5.0 18.0 0.02 0.67 0.67 48 1016.7
20260507003504 40 247 5.0 10.0 0.01 0.66 0.66 45 1016.7
20260507003005 41 251 6.0 12.0 0.01 0.66 0.66 45 1016.7
20260507002504 41 307 3.0 9.0 0.01 0.66 0.66 46 1016.7
20260507002004 41 323 3.0 6.0 0.02 0.66 0.66 44 1016.7
20260507001503 41 226 1.0 3.0 0.02 0.66 0.66 45 1016.7
20260507000504 40 226 2.0 5.0 0.02 0.66 0.66 43 1016.8
20260507000004 41 226 5.0 9.0 0.03 0.66 0.66 44 1016.8
20260506235504 41 205 4.0 7.0 0.03 0.66 0.66 43 1016.8
20260506235004 40 292 2.0 3.0 0.03 0.66 0.66 45 1016.8
20260506234504 40 223 5.0 9.0 0.03 0.65 0.65 46 1016.9
20260506234004 39 250 10.0 14.0 0.04 0.65 0.65 45 1016.9
20260506233504 39 234 4.0 13.0 0.04 0.65 0.65 48 1016.7
20260506233004 39 226 7.0 20.0 0.05 0.66 0.65 47 1016.7
20260506232504 40 245 6.0 12.0 0.06 0.66 0.65 50 1016.7
20260506232003 39 251 9.0 15.0 0.06 0.65 0.64 49 1016.8
20260506231504 39 251 10.0 17.0 0.07 0.65 0.64 48 1016.7
20260506231004 39 268 6.0 14.0 0.08 0.65 0.64 51 1016.7
20260506230504 39 259 10.0 18.0 0.09 0.65 0.64 49 1016.7
20260506230004 39 268 8.0 13.0 0.10 0.64 0.63 49 1016.6
20260506225504 39 245 7.0 20.0 0.11 0.64 0.63 49 1016.8
20260506224504 38 291 2.0 6.0 0.13 0.63 0.62 69 1016.9
20260506224004 37 115 2.0 5.0 0.14 0.62 0.61 71 1016.9
20260506223504 37 78 2.0 3.0 0.16 0.62 0.61 68 1016.9
20260506223004 37 65 1.0 3.0 0.17 0.61 0.60 70 1017.0
20260506222004 37 48 2.0 5.0 0.19 0.59 0.58 70 1016.9
20260506221004 37 75 2.0 3.0 0.20 0.57 0.56 69 1017.2
20260506220504 37 85 1.0 2.0 0.21 0.56 0.55 69 1017.1
20260506220005 37 85 0.0 2.0 0.21 0.54 0.53 69 1017.2
20260506215503 37 85 0.0 1.0 0.23 0.53 0.52 66 1017.2
20260506215005 38 51 1.0 3.0 0.23 0.51 0.50 70 1017.3
20260506214504 37 66 2.0 3.0 0.24 0.51 0.49 68 1017.5
20260506214004 37 57 1.0 3.0 0.25 0.49 0.47 69 1017.6
20260506213504 37 58 3.0 5.0 0.24 0.47 0.45 71 1017.7
20260506211504 35 115 0.0 2.0 0.22 0.40 0.38 70 1017.8
20260506211004 35 111 1.0 2.0 0.21 0.38 0.36 72 1017.8
20260506210504 35 121 0.0 1.0 0.20 0.36 0.34 72 1017.8
20260506205504 35 85 2.0 3.0 0.16 0.32 0.29 71 1018.1
20260506205004 35 88 1.0 3.0 0.15 0.30 0.27 71 1018.4
20260506204504 35 88 2.0 5.0 0.13 0.28 0.25 70 1018.2
20260506204003 35 57 2.0 3.0 0.10 0.25 0.22 72 1018.6
20260506203004 33 77 2.0 3.0 0.08 0.22 0.19 78 1018.9
20260506202004 32 120 3.0 5.0 0.07 0.20 0.17 79 1018.8
20260506201004 32 62 3.0 6.0 0.05 0.19 0.15 80 1018.9
20260506200504 32 86 2.0 3.0 0.05 0.18 0.14 77 1019.0
20260506200004 32 66 3.0 6.0 0.05 0.18 0.14 78 1019.0
20260506195504 32 117 3.0 3.0 0.05 0.17 0.13 77 1019.0
20260506195004 32 114 5.0 6.0 0.04 0.16 0.12 77 1019.0
20260506194504 33 121 2.0 7.0 0.05 0.16 0.12 78 1018.9
20260506194004 32 81 3.0 8.0 0.05 0.16 0.12 79 1019.0
20260506193504 32 109 5.0 9.0 0.04 0.15 0.11 79 1019.0
20260506193004 31 107 5.0 7.0 0.05 0.16 0.11 79 1019.0
20260506192504 31 76 5.0 9.0 0.05 0.16 0.11 80 1019.0
20260506192003 31 84 5.0 12.0 0.05 0.15 0.10 79 1019.0
20260506191504 31 91 5.0 12.0 0.05 0.15 0.10 80 1019.0
20260506191004 32 117 6.0 10.0 0.05 0.15 0.10 77 1019.0
20260506190505 33 127 5.0 7.0 0.05 0.14 0.09 77 1019.0
20260506190004 32 52 6.0 10.0 0.05 0.14 0.09 79 1019.0
20260506185504 32 105 5.0 10.0 0.05 0.14 0.08 78 1019.0
20260506185003 31 101 6.0 12.0 0.06 0.14 0.08 78 1019.0
20260506184504 31 104 7.0 12.0 0.05 0.13 0.07 78 1019.0
20260506184004 31 108 5.0 8.0 0.06 0.13 0.07 77 1019.0
20260506183504 32 106 5.0 9.0 0.06 0.13 0.07 76 1019.0
20260506182504 33 86 4.0 7.0 0.06 0.12 0.06 72 1019.1
20260506182005 34 143 0.0 5.0 0.05 0.12 0.05 72 1019.1
20260506181003 35 151 0.0 0.0 0.05 0.12 0.05 66 1019.2
20260506180503 35 151 0.0 0.0 0.04 0.11 0.04 70 1019.3
20260506180005 35 151 0.0 0.0 0.04 0.11 0.04 67 1019.2
20260506175504 34 151 0.0 2.0 0.03 0.11 0.03 67 1019.3
20260506174504 34 62 0.0 2.0 0.02 0.10 0.02 71 1019.4
20260506174004 32 62 0.0 0.0 0.01 0.09 0.01 71 1019.5
20260506173504 32 76 0.0 0.0 0.01 0.09 0.01 66 1019.5
20260506173004 32 67 0.0 2.0 0.00 0.08 0.00 72 1019.5
20260506172504 31 94 0.0 2.0 0.00 0.08 0.00 76 1019.5
20260506172004 30 70 0.0 1.0 0.00 0.08 0.00 78 1019.5
20260506171504 29 106 0.0 0.0 0.00 0.09 0.00 78 1019.5
20260506171004 28 94 0.0 0.0 0.00 0.09 0.00 78 1019.4
20260506170503 28 107 0.0 0.0 0.00 0.09 0.00 78 1019.3
20260506170004 28 103 0.0 0.0 0.00 0.09 0.00 80 1019.4